THOR ABLESTAR DEB, 177

Orbit data source: Space-Track

THOR ABLESTAR DEB, 177 is space debris in LEO originally from a launch on Thu, 29 Jun 1961 UTC launched from the Air Force Eastern Test Range (AFETR). Debris objects in space refer to the collection of defunct objects orbiting the Earth. Examples of debris include non-operational satellites, rocket bodies, and fragments generated from explosions, collisions, or faulty payload assembly.

Loading next visibility...
THOR ABLESTAR DEB details
Identifier
177, 1961-015BB
Orbit
LEO
Last TLE update1 day ago
Origin
Flag of USUSAF SSD (US)
ManufacturerUnknown
MissionSpacecraft
Bus & MotorUnknown
MassUnknown
Launch date (UTC)
1961-06-29 (64 years ago)
Launch vehicleUnknown
Launch site
Air Force Eastern Test Range (AFETR)
Object type
Payload
Rocket body
Debris
Shape & HBRUnknown
Radar Cross SectionMedium (>0.1 m² and <1 m²)

Expand to show TLE details & history

TLE from 1 day ago
0 THOR ABLESTAR DEB
1 00177U 61015BB  25035.42557259  .00000245  00000-0  16265-3 0  9996
2 00177  66.6567  35.2947 0100227  76.4516 284.7715 14.14518876270754
Epoch: 2025-02-04T10:12Z
Definitive object data (Epoch: 2025-02-04T10:12:49.471Z)
Latitude-0.00007°
Longitude107.2575°
Altitude828.261 km
Speed7.448 km/s
True Right ascension02h 21m 10s
True Declination0° 00' 00"
Sunlit
Object was in daylight at TLE epoch
Visualization TLE readout
Latitude-16.55415°
Longitude-68.03745°
Altitude887.623 km
Speed7.388 km/s
Apparent Right ascension17h 19m 31s
Apparent Declination-61° 27' 10"
Sunlit
Object is in daylight
Visualization observer readout
Local Sidereal Time12:56:29
Azimuth151.412° SSE
Elevation-24.404°
Doppler factor1
Orbital elements
Apogee altitude914.71 km
Perigee altitude769.972 km
Semi-major axis7,220.478 km
Eccentricity0.0100227
Inclination66.6567°
RAAN35.2947°
Arg. of periapsis76.4516°
True anomaly283.65745°
Mean anomaly284.7715°
Eccentric anomaly284.21482°
Mean motion3.53748 °/min
BSTAR0.00016265
Orbital period101.77 mins
Loading maneuver chart data...

THOR ABLESTAR DEB Visibility forecast

Observer location: undefined°, undefined

Span
Click to sort rows by Start time (UTC) header in descending order
Start Az.
Max El. time (UTC)
Max El. Az.
Max El.
End time (UTC)
End Az.
4 mins2025-02-05 12:17:34.777Z279.992° WNW2025-02-05 12:19:34.777Z257.599° W12.939°2025-02-05 12:21:34.777Z234.988° WSW
8 mins2025-02-06 01:23:34.777Z211.008° SW2025-02-06 01:26:34.777Z228.77° WSW44.054°2025-02-06 01:31:34.777Z27.811° NE
9 mins2025-02-06 10:17:34.777Z335.701° NNW2025-02-06 10:21:34.777Z105.86° ESE43.757°2025-02-06 10:26:34.777Z147.08° SSE
|